(19) Fortuna
ephemeris date magn radius delta ra dec elong phase
Today2 Jul 202512.22.299 AU3.304 AU07h14m+21°15'7.3°3.2°
Opposition12 Mar 202610.92.700 AU1.707 AU11h29m+01°38'178.3°0.6°
(19) Fortuna - 2025-07-02
astro.vanbuitenen.nl


 
-1 year
-1 month
-1 day
Now
+1 day
+1 month
+1 year

The interactive orbit chart above shows the body's path through the solar system and its position at the given date. Green and blue lines are shown perpendicular to the ecliptic plane: Green if the path is above the ecliptic plane, blue if it is below. (Left-click and drag to rotate the view; Right-click and drag to move the view; Use scroll wheel to zoom in our out.)

The orbital elements of Fortuna are:

            e (Eccentricity)                : 0.1578698
            a (Semimajor axis)              : 2.4429432
            i (Inclination)                 : 1.57334
            Ω (Longitude of ascending node) : 211.03056
            ω (Argument of perihelion)      : 182.64799
            M (Mean anomaly)                : 44.72456
            Epoch                           : 2025 May 05

            L (Longitude of perihelion)     : 213.67755
            B (Latitude of perihelion)      : -0.07268
            P (Orbital period in years)     : 3.82            
        

The light curve chart below shows the estimated development of the minor planet's magnitude.


The all-sky chart below shows the path of the minor planet over the same period as the light curve. The current position is marked yellow.





The following chart shows the path of the minor planet in the next few days. The field of view is optimized for (~10x50) binoculars and finderscopes. A more printer-friendly version of the same chart can be found below.




Ephemerides:
Date       Time       RA (2000)    DEC (2000)    delta   radius  elong  phase   PA    magn
2025-07-02 00:00 UT   07 14 13.6   +21 15 27     3.304    2.299    7.3    3.2   106   12.2 
2025-07-02 02:57 UT   07 14 29.1   +21 14 59     3.304    2.299    7.2    3.2   106   12.2 
2025-07-03 00:00 UT   07 16 19.3   +21 11 36     3.307    2.301    6.8    3.0   106   12.2 
2025-07-04 00:00 UT   07 18 24.8   +21 07 40     3.310    2.302    6.4    2.8   107   12.2 
2025-07-05 00:00 UT   07 20 30.1   +21 03 38     3.313    2.304    5.9    2.6   108   12.2 
2025-07-06 00:00 UT   07 22 35.2   +20 59 30     3.316    2.306    5.5    2.4   109   12.2 
2025-07-07 00:00 UT   07 24 40.0   +20 55 16     3.319    2.308    5.0    2.2   111   12.2 
2025-07-08 00:00 UT   07 26 44.6   +20 50 57     3.321    2.309    4.6    2.0   112   12.2 
2025-07-09 00:00 UT   07 28 49.0   +20 46 32     3.324    2.311    4.1    1.8   114   12.1 
2025-07-10 00:00 UT   07 30 53.1   +20 42 01     3.326    2.313    3.7    1.6   116   12.1 
2025-07-11 00:00 UT   07 32 57.0   +20 37 25     3.329    2.315    3.2    1.4   118   12.1 
2025-07-12 00:00 UT   07 35 00.6   +20 32 43     3.331    2.316    2.8    1.2   122   12.1 
2025-07-13 00:00 UT   07 37 04.0   +20 27 56     3.333    2.318    2.4    1.0   126   12.1 
2025-07-14 00:00 UT   07 39 07.1   +20 23 03     3.335    2.320    2.0    0.9   133   12.1 
2025-07-15 00:00 UT   07 41 10.1   +20 18 05     3.337    2.321    1.6    0.7   142   12.1 
2025-07-16 00:00 UT   07 43 12.7   +20 13 02     3.339    2.323    1.3    0.6   156   12.0 
2025-07-17 00:00 UT   07 45 15.1   +20 07 53     3.341    2.325    1.1    0.5   177   12.0 
2025-07-18 00:00 UT   07 47 17.2   +20 02 39     3.343    2.327    1.1    0.5   201   12.0 
2025-07-19 00:00 UT   07 49 19.1   +19 57 19     3.344    2.328    1.3    0.6   222   12.1 


    Terminology:
            
    delta:  distance between minor planet and earth in AU
    radius: distance between minor planet and sun in AU
    magn:   magnitude (brightness) estimate    
    ra:     right ascension in hours (24h = 360deg)
    dec:    declination in degrees
    elong:  elongation in degrees (angle sun-earth-minor planet)    
    phase:  phase angle in degrees (angle sun-minor planet-earth)        
    AU:     Astronomical Unit (mean distance between earth and sun: 149597870.7 km
    

Orbital elements provided by the MPC (Minor Planet Center).
Calculations by a modified version of AAPlus, a C# implementation of the AA+ project by PJ Naughter from the algorithms presented in the book "Astronomical Algorithms" by Jean Meeus.
NGC2000 dso catalog and star labels from VizieR as provided by the Strasbourg astronomical Data Center.
Tycho2 catalog from the ESO archive.